Content
SEND FEEDBACK

Daily
Averages
Monthly
Summary
Mexico

SAN MARTINIANO, QUINTANA ROO


Home > North America > Mexico > Quintana Roo
Elevation: 49 feet     Latitude: 20 47N     Longitude: 087 16W

WEATHER
 
SELECT A DAY
Number of Records: 204,356;   Date Range: 2/21/06 - 11/25/14
 
SHARE

PRINT THIS DATA

[ ← Previous Day ]
WEATHER ALMANAC - MARCH 19, 2013
[ Next Day → ]
[ °C ]   °F
Weather ElementAverageHighLow
Temperature73.7 °F87.8 °F (3:35 pm)62.6 °F (7:35 am)
Dewpoint38.1 °F66.2 °F (12:35 am) (7:00 pm)
Humidity56.8 %100 % (12:55 am)35 % (2:35 pm)
Barometer29.98 in30.04 in (9:15 am)29.93 in (3:55 pm)
Wind Speed3.1 mph12.7 mph (5:35 pm)
Wind Gust18.4 mph (5:35 pm)
Weather ElementAverage
Visibility8.3 mi
Wind DirectionSE (132.4 °)

Weather ElementTotal
Precipitation---
Cooling Degree Days10.2 (Base 65)
Growing Degree Days25.2 (Base 50)
Averaged from 70 records on March 19, 2013
WEATHER CONDITIONS BREAKOUT
WIND DIRECTION BREAKOUT
WEATHER BY HOUR - MARCH 19, 2013
[ °C ]   °F
Local TimeTemperatureDewpointHumidityBarometerVisibilityWind DirectionWind SpeedGust SpeedPrecipitationEventsConditions
12:35 AM68.0 °F66.2 °F94 %29.95 in10.0 miCalmClear
12:55 AM66.2 °F66.2 °F100 %29.95 in10.0 miCalmClear
1:15 AM66.2 °F0.0 °F29.95 in10.0 miCalmClear
1:35 AM64.4 °F0.0 °F29.95 in10.0 miCalmClear
1:55 AM66.2 °F0.0 °F29.95 in7.0 miNorth (360°)3.5 mphClear
2:15 AM64.4 °F0.0 °F29.94 in7.0 miCalmClear
2:35 AM66.2 °F0.0 °F29.95 in7.0 miCalmClear
2:55 AM66.2 °F0.0 °F29.97 in7.0 miNorth (360°)3.5 mphClear
3:15 AM66.2 °F0.0 °F29.97 in7.0 miNorth (10°)3.5 mphClear
3:55 AM64.4 °F0.0 °F29.97 in5.0 miNorth (10°)4.6 mphHaze
4:15 AM64.4 °F0.0 °F29.96 in5.0 miNE (40°)3.5 mphHaze
4:35 AM66.2 °F0.0 °F29.97 in5.0 miNNE (20°)4.6 mphHaze
4:55 AM66.2 °F0.0 °F29.97 in7.0 miCalmOvercast
5:15 AM66.2 °F0.0 °F29.94 in7.0 miESE (120°)5.8 mphMostly Cloudy
5:35 AM66.2 °F0.0 °F29.96 in5.0 miCalmHaze
5:55 AM64.4 °F0.0 °F29.96 in4.0 miCalmHaze
6:15 AM64.4 °F0.0 °F29.96 in2.5 miSE (130°)3.5 mphClear
6:35 AM64.4 °F0.0 °F29.98 in2.0 miCalmClear
6:55 AM64.4 °F0.0 °F29.99 in0.8 miSSE (160°)3.5 mphMist
7:15 AM64.4 °F0.0 °F30.02 in5.0 miCalmHaze
7:35 AM62.6 °F0.0 °F30.01 in2.0 miCalmOvercast
7:55 AM64.4 °F0.0 °F30.02 in2.5 miCalmOvercast
8:15 AM64.4 °F0.0 °F30.02 in3.0 miCalmOvercast
8:35 AM64.4 °F0.0 °F30.03 in3.0 miCalmMostly Cloudy
8:55 AM66.2 °F0.0 °F30.02 in3.0 miEast (80°)4.6 mphScattered Clouds
9:15 AM66.2 °F0.0 °F30.04 in4.0 miNE (40°)3.5 mphHaze
9:35 AM69.8 °F0.0 °F30.04 in7.0 miEast (80°)3.5 mphClear
9:55 AM71.6 °F0.0 °F30.04 in10.0 miEast (80°)6.9 mphScattered Clouds
10:15 AM73.4 °F64.4 °F73 %30.04 in10.0 miENE (60°)4.6 mphScattered Clouds
10:35 AM75.2 °F64.4 °F69 %30.04 in10.0 miNorth (360°)3.5 mphScattered Clouds
10:55 AM75.2 °F62.6 °F65 %30.02 in10.0 miCalmScattered Clouds
11:15 AM77.0 °F60.8 °F57 %30.02 in10.0 miCalmClear
11:35 AM78.8 °F60.8 °F54 %30.03 in10.0 miCalmClear
11:55 AM78.8 °F60.8 °F54 %30.04 in10.0 miCalmClear
12:15 PM80.6 °F60.8 °F51 %30.04 in10.0 miCalmClear
12:35 PM80.6 °F60.8 °F51 %30.04 in10.0 miEast (90°)5.8 mphMostly Cloudy
12:55 PM80.6 °F59.0 °F48 %30.02 in10.0 miCalmMostly Cloudy
1:15 PM82.4 °F59.0 °F45 %30.01 in10.0 miCalmScattered Clouds
1:35 PM82.4 °F59.0 °F45 %30.00 in10.0 miCalmClear
1:55 PM84.2 °F59.0 °F42 %29.99 in10.0 miCalmClear
2:15 PM82.4 °F59.0 °F45 %29.98 in10.0 miEast (80°)3.5 mphClear
2:35 PM86.0 °F55.4 °F35 %29.96 in10.0 miCalmClear
2:55 PM86.0 °F57.2 °F37 %29.95 in10.0 miWNW (290°)4.6 mphClear
3:15 PM86.0 °F57.2 °F37 %29.95 in10.0 miCalmClear
3:35 PM87.8 °F57.2 °F35 %29.94 in10.0 miCalmClear
3:55 PM87.8 °F57.2 °F35 %29.93 in10.0 miWSW (240°)4.6 mphClear
4:15 PM87.8 °F57.2 °F35 %29.93 in10.0 miWest (280°)3.5 mphScattered Clouds
4:35 PM86.0 °F57.2 °F37 %29.93 in10.0 miNorth (360°)3.5 mphMostly Cloudy
4:55 PM86.0 °F57.2 °F37 %29.93 in10.0 miNNW (330°)4.6 mphMostly Cloudy
5:15 PM86.0 °F57.2 °F37 %29.93 in10.0 miCalmMostly Cloudy
5:35 PM86.0 °F57.2 °F37 %29.93 in10.0 miWest (260°)12.7 mph18.4 mphMostly Cloudy
5:55 PM86.0 °F55.4 °F35 %29.94 in10.0 miWNW (290°)10.4 mph16.1 mphScattered Clouds
6:15 PM84.2 °F60.8 °F45 %29.94 in10.0 miWNW (300°)12.7 mph16.1 mphScattered Clouds
6:35 PM82.4 °F60.8 °F48 %29.94 in10.0 miWNW (290°)12.7 mph17.3 mphClear
6:55 PM80.6 °F60.8 °F51 %29.95 in10.0 miWNW (290°)10.4 mph17.3 mphClear
7:15 PM78.8 °F60.8 °F54 %29.96 in10.0 miWNW (290°)8.1 mphClear
7:35 PM77.0 °F60.8 °F57 %29.96 in10.0 miWNW (290°)6.9 mphClear
7:55 PM77.0 °F60.8 °F57 %29.97 in10.0 miWNW (290°)4.6 mphClear
8:15 PM75.2 °F62.6 °F65 %29.97 in10.0 miNW (310°)5.8 mphClear
8:35 PM75.2 °F62.6 °F65 %29.97 in10.0 miWNW (300°)4.6 mphClear
8:55 PM73.4 °F62.6 °F69 %29.98 in10.0 miWNW (300°)5.8 mphClear
9:15 PM73.4 °F62.6 °F69 %29.98 in10.0 miNorth (350°)3.5 mphClear
9:35 PM71.6 °F62.6 °F73 %29.99 in10.0 miNW (320°)4.6 mphScattered Clouds
9:55 PM71.6 °F62.6 °F73 %29.99 in10.0 miNNW (330°)4.6 mphScattered Clouds
10:15 PM69.8 °F62.6 °F78 %29.99 in10.0 miNNW (330°)3.5 mphClear
10:35 PM69.8 °F62.6 °F78 %29.99 in10.0 miNW (310°)4.6 mphScattered Clouds
10:55 PM69.8 °F62.6 °F78 %29.99 in10.0 miCalmScattered Clouds
11:15 PM68.0 °F62.6 °F83 %30.00 in10.0 miWest (280°)3.5 mphScattered Clouds
11:35 PM68.0 °F62.6 °F83 %30.00 in10.0 miWest (280°)3.5 mphOvercast
11:55 PM68.0 °F62.6 °F83 %30.00 in10.0 miWest (280°)4.6 mphOvercast
Hourly data recorded from KPCM, located miles away from San Martiniano, Quintana Roo







STORIES FROM OUR PARTNERS